When you browse on this site, cookies collect data to enhance your experience and personalize the content and advertising you see.
Visit our Privacy Policy to learn more. By continuing to use the site, you agree to this use of cookies and data.
  • In Portugal
  • List of Countries
  • For 7 days
  • Water Temperature
  • Satellite Maps
  • Weather Map
  • Weather Widgets
  • user-avatar
    Login

    Hourly Weather Moiseevka

    Today, 23 July, Tuesday

    Time Temperature Precipitation Wind Pressure Humidity
    00:00 +13°C° 0 mm 3 mps 750 mmHg 94%
    01:00 +13°C° 0 mm 3 mps 750 mmHg 95%
    02:00 +13°C° 0 mm 2 mps 750 mmHg 95%
    03:00 +13°C° 0 mm 2 mps 750 mmHg 95%
    04:00 +14°C° 0 mm 2 mps 751 mmHg 93%
    05:00 +14°C° 0 mm 3 mps 751 mmHg 91%
    06:00 +16°C° 0 mm 3 mps 751 mmHg 88%
    07:00 +17°C° 0 mm 3 mps 751 mmHg 81%
    08:00 +19°C° 0 mm 3 mps 751 mmHg 73%
    09:00 +20°C° 0 mm 3 mps 751 mmHg 66%
    10:00 +21°C° 0 mm 3 mps 751 mmHg 64%
    11:00 +22°C° 0 mm 3 mps 751 mmHg 62%
    12:00 +22°C° 0 mm 3 mps 751 mmHg 59%
    13:00 +24°C° 0 mm 3 mps 751 mmHg 59%
    14:00 +24°C° 0 mm 3 mps 751 mmHg 58%
    15:00 +24°C° 0 mm 3 mps 751 mmHg 57%
    16:00 +24°C° 0 mm 3 mps 751 mmHg 62%
    17:00 +22°C° 0 mm 3 mps 751 mmHg 67%
    18:00 +23°C° 0 mm 2 mps 751 mmHg 72%
    19:00 +20°C° 0 mm 2 mps 751 mmHg 76%
    20:00 +19°C° 0 mm 1 mps 752 mmHg 81%
    21:00 +18°C° 0 mm 1 mps 752 mmHg 85%
    22:00 +16°C° 0 mm 1 mps 752 mmHg 86%
    23:00 +16°C° 0 mm 1 mps 752 mmHg 88%

    Tomorrow, 24 July, Wednesday

    Time Temperature Precipitation Wind Pressure Humidity
    00:00 +15°C° 0 mm 1 mps 752 mmHg 89%
    01:00 +15°C° 0 mm 1 mps 752 mmHg 89%
    02:00 +15°C° 0 mm 1 mps 752 mmHg 90%
    03:00 +15°C° 0 mm 1 mps 752 mmHg 91%
    04:00 +14°C° 0 mm 0 mps 752 mmHg 89%
    05:00 +15°C° 0 mm 0 mps 753 mmHg 87%
    06:00 +16°C° 0 mm 0 mps 753 mmHg 85%
    07:00 +20°C° 0 mm 1 mps 753 mmHg 80%
    08:00 +21°C° 0 mm 1 mps 753 mmHg 74%
    09:00 +23°C° 0 mm 1 mps 753 mmHg 68%
    10:00 +24°C° 0 mm 1 mps 753 mmHg 64%
    11:00 +25°C° 0 mm 1 mps 753 mmHg 60%
    12:00 +26°C° 0 mm 2 mps 753 mmHg 56%
    13:00 +26°C° 0 mm 2 mps 753 mmHg 56%
    14:00 +26°C° 0 mm 2 mps 753 mmHg 55%
    15:00 +26°C° 0 mm 2 mps 753 mmHg 55%
    16:00 +26°C° 0 mm 2 mps 753 mmHg 60%
    17:00 +25°C° 0 mm 2 mps 753 mmHg 66%
    18:00 +24°C° 0 mm 2 mps 753 mmHg 71%
    19:00 +23°C° 0 mm 2 mps 753 mmHg 76%
    20:00 +21°C° 0 mm 1 mps 753 mmHg 81%
    21:00 +19°C° 0 mm 1 mps 753 mmHg 86%
    22:00 +19°C° 0 mm 1 mps 753 mmHg 87%
    23:00 +18°C° 0 mm 1 mps 754 mmHg 88%

    Day after tomorrow, 25 July, Thursday

    Time Temperature Precipitation Wind Pressure Humidity
    00:00 +18°C° 0 mm 1 mps 754 mmHg 89%
    01:00 +18°C° 0 mm 1 mps 754 mmHg 90%
    02:00 +16°C° 0 mm 1 mps 754 mmHg 90%
    03:00 +16°C° 0 mm 1 mps 753 mmHg 91%
    04:00 +18°C° 0 mm 1 mps 754 mmHg 89%
    05:00 +19°C° 0 mm 1 mps 754 mmHg 87%
    06:00 +19°C° 0 mm 2 mps 754 mmHg 85%
    07:00 +20°C° 0 mm 2 mps 754 mmHg 79%
    08:00 +23°C° 0 mm 2 mps 754 mmHg 73%
    09:00 +25°C° 0 mm 2 mps 754 mmHg 67%
    10:00 +26°C° 0 mm 3 mps 754 mmHg 63%
    11:00 +27°C° 0 mm 3 mps 754 mmHg 59%
    12:00 +28°C° 0 mm 3 mps 754 mmHg 55%
    13:00 +28°C° 0 mm 3 mps 754 mmHg 55%
    14:00 +28°C° 0 mm 3 mps 753 mmHg 54%
    15:00 +28°C° 0 mm 4 mps 753 mmHg 54%
    16:00 +27°C° 0 mm 3 mps 753 mmHg 59%
    17:00 +27°C° 0 mm 3 mps 753 mmHg 63%
    18:00 +26°C° 0 mm 3 mps 753 mmHg 68%
    19:00 +24°C° 0 mm 3 mps 753 mmHg 73%
    20:00 +21°C° 0 mm 3 mps 753 mmHg 78%
    21:00 +20°C° 0 mm 3 mps 753 mmHg 83%
    22:00 +19°C° 0 mm 3 mps 753 mmHg 84%
    23:00 +19°C° 0 mm 3 mps 753 mmHg 86%

    26 July, Friday

    Time Temperature Precipitation Wind Pressure Humidity
    00:00 +18°C° 0 mm 3 mps 753 mmHg 88%
    01:00 +18°C° 0 mm 3 mps 753 mmHg 89%
    02:00 +18°C° 0 mm 3 mps 753 mmHg 90%
    03:00 +17°C° 0 mm 3 mps 752 mmHg 90%
    04:00 +18°C° 0 mm 4 mps 752 mmHg 88%
    05:00 +19°C° 0 mm 4 mps 753 mmHg 85%
    06:00 +20°C° 0 mm 4 mps 753 mmHg 83%
    07:00 +21°C° 0 mm 4 mps 752 mmHg 79%
    08:00 +23°C° 0 mm 4 mps 752 mmHg 74%
    09:00 +25°C° 0 mm 4 mps 752 mmHg 70%
    10:00 +27°C° 0.1 mm 4 mps 752 mmHg 65%
    11:00 +28°C° 0.1 mm 4 mps 751 mmHg 61%
    12:00 +29°C° 0.1 mm 4 mps 751 mmHg 56%
    13:00 +29°C° 0.3 mm 4 mps 751 mmHg 58%
    14:00 +28°C° 0.3 mm 4 mps 751 mmHg 59%
    15:00 +28°C° 0.3 mm 4 mps 750 mmHg 61%
    16:00 +27°C° 0.6 mm 4 mps 750 mmHg 67%
    17:00 +26°C° 0.6 mm 4 mps 750 mmHg 73%
    18:00 +25°C° 0.6 mm 3 mps 750 mmHg 79%
    19:00 +24°C° 0 mm 3 mps 750 mmHg 83%
    20:00 +21°C° 0 mm 4 mps 750 mmHg 86%
    21:00 +20°C° 0 mm 4 mps 750 mmHg 89%
    22:00 +20°C° 0.1 mm 4 mps 750 mmHg 90%
    23:00 +19°C° 0.1 mm 3 mps 750 mmHg 91%

    27 July, Saturday

    Time Temperature Precipitation Wind Pressure Humidity
    00:00 +19°C° 0.1 mm 3 mps 750 mmHg 92%
    01:00 +18°C° 0 mm 3 mps 749 mmHg 92%
    02:00 +18°C° 0 mm 3 mps 749 mmHg 92%
    03:00 +17°C° 0 mm 3 mps 749 mmHg 92%
    04:00 +18°C° 0.1 mm 2 mps 749 mmHg 90%
    05:00 +19°C° 0.1 mm 1 mps 749 mmHg 88%
    06:00 +20°C° 0.1 mm 1 mps 749 mmHg 86%
    07:00 +21°C° 0.1 mm 1 mps 749 mmHg 81%
    08:00 +21°C° 0.1 mm 2 mps 748 mmHg 77%
    09:00 +24°C° 0.1 mm 2 mps 748 mmHg 72%
    10:00 +25°C° 0.6 mm 2 mps 748 mmHg 68%
    11:00 +26°C° 0.6 mm 3 mps 748 mmHg 65%
    12:00 +27°C° 0.6 mm 3 mps 747 mmHg 62%
    13:00 +27°C° 1.2 mm 3 mps 747 mmHg 61%
    14:00 +27°C° 1.2 mm 2 mps 746 mmHg 60%
    15:00 +27°C° 1.2 mm 1 mps 746 mmHg 59%
    16:00 +26°C° 0.2 mm 1 mps 745 mmHg 63%
    17:00 +26°C° 0.2 mm 1 mps 745 mmHg 67%
    18:00 +25°C° 0.2 mm 1 mps 744 mmHg 71%
    19:00 +24°C° 0.1 mm 1 mps 744 mmHg 75%
    20:00 +22°C° 0.1 mm 1 mps 744 mmHg 79%
    21:00 +20°C° 0.1 mm 1 mps 744 mmHg 83%
    22:00 +20°C° 0.1 mm 1 mps 743 mmHg 85%
    23:00 +19°C° 0.1 mm 1 mps 743 mmHg 86%

    28 July, Sunday

    Time Temperature Precipitation Wind Pressure Humidity
    00:00 +18°C° 0.1 mm 2 mps 742 mmHg 88%
    01:00 +18°C° 0 mm 2 mps 742 mmHg 88%
    02:00 +17°C° 0 mm 2 mps 741 mmHg 88%
    03:00 +17°C° 0 mm 2 mps 741 mmHg 88%
    04:00 +17°C° 0.5 mm 2 mps 740 mmHg 90%
    05:00 +18°C° 0.5 mm 2 mps 740 mmHg 92%
    06:00 +18°C° 0.5 mm 2 mps 740 mmHg 93%
    07:00 +17°C° 2.2 mm 3 mps 739 mmHg 94%
    08:00 +17°C° 2.2 mm 4 mps 739 mmHg 95%
    09:00 +17°C° 2.2 mm 4 mps 739 mmHg 95%
    10:00 +16°C° 2 mm 5 mps 739 mmHg 93%
    11:00 +16°C° 2 mm 5 mps 739 mmHg 91%
    12:00 +16°C° 2 mm 6 mps 739 mmHg 89%
    13:00 +16°C° 0 mm 6 mps 739 mmHg 85%
    14:00 +15°C° 0 mm 6 mps 740 mmHg 80%
    15:00 +15°C° 0 mm 7 mps 740 mmHg 75%
    16:00 +15°C° 0 mm 6 mps 740 mmHg 74%
    17:00 +14°C° 0 mm 6 mps 740 mmHg 74%
    18:00 +13°C° 0 mm 5 mps 741 mmHg 73%
    19:00 +12°C° 0 mm 5 mps 741 mmHg 76%
    20:00 +10°C° 0 mm 5 mps 741 mmHg 79%
    21:00 +10°C° 0 mm 4 mps 741 mmHg 83%
    22:00 +10°C° 0 mm 4 mps 741 mmHg 81%
    23:00 +9°C° 0 mm 5 mps 741 mmHg 80%
    Show more